Year,Month,Day,Hour,Minute,Value (Times are PST for temperature in C)
2018,03,31,00,00,8.10
2018,03,31,00,01,8.10
2018,03,31,00,02,8.00
2018,03,31,00,03,8.00
2018,03,31,00,04,8.00
2018,03,31,00,05,8.00
2018,03,31,00,06,8.00
2018,03,31,00,07,8.00
2018,03,31,00,08,8.00
2018,03,31,00,09,8.00
2018,03,31,00,10,8.00
2018,03,31,00,11,8.00
2018,03,31,00,12,7.90
2018,03,31,00,13,7.90
2018,03,31,00,14,7.90
2018,03,31,00,15,7.90
2018,03,31,00,16,7.90
2018,03,31,00,17,7.90
2018,03,31,00,18,7.80
2018,03,31,00,19,7.80
2018,03,31,00,20,7.80
2018,03,31,00,21,7.80
2018,03,31,00,22,7.80
2018,03,31,00,23,7.80
2018,03,31,00,24,7.80
2018,03,31,00,25,7.80
2018,03,31,00,26,7.80
2018,03,31,00,27,7.70
2018,03,31,00,28,7.70
2018,03,31,00,29,7.70
2018,03,31,00,30,7.70
2018,03,31,00,31,7.70
2018,03,31,00,32,7.60
2018,03,31,00,33,7.60
2018,03,31,00,34,7.60
2018,03,31,00,35,7.50
2018,03,31,00,36,7.50
2018,03,31,00,37,7.50
2018,03,31,00,38,7.50
2018,03,31,00,39,7.50
2018,03,31,00,40,7.50
2018,03,31,00,41,7.50
2018,03,31,00,42,7.40
2018,03,31,00,43,7.30
2018,03,31,00,44,7.30
2018,03,31,00,45,7.20
2018,03,31,00,46,7.20
2018,03,31,00,47,7.20
2018,03,31,00,48,7.10
2018,03,31,00,49,7.10
2018,03,31,00,50,7.10
2018,03,31,00,51,7.00
2018,03,31,00,52,7.00
2018,03,31,00,53,6.90
2018,03,31,00,54,6.90
2018,03,31,00,55,6.90
2018,03,31,00,56,6.90
2018,03,31,00,57,6.80
2018,03,31,00,58,6.80
2018,03,31,00,59,6.80
2018,03,31,01,00,6.80
2018,03,31,01,01,6.80
2018,03,31,01,02,6.80
2018,03,31,01,03,6.70
2018,03,31,01,04,6.70
2018,03,31,01,05,6.70
2018,03,31,01,06,6.70
2018,03,31,01,07,6.70
2018,03,31,01,08,6.70
2018,03,31,01,09,6.70
2018,03,31,01,10,6.60
2018,03,31,01,11,6.60
2018,03,31,01,12,6.60
2018,03,31,01,13,6.50
2018,03,31,01,14,6.50
2018,03,31,01,15,6.50
2018,03,31,01,16,6.40
2018,03,31,01,17,6.40
2018,03,31,01,18,6.30
2018,03,31,01,19,6.30
2018,03,31,01,20,6.30
2018,03,31,01,21,6.20
2018,03,31,01,22,6.20
2018,03,31,01,23,6.20
2018,03,31,01,24,6.20
2018,03,31,01,25,6.20
2018,03,31,01,26,6.20
2018,03,31,01,27,6.20
2018,03,31,01,28,6.20
2018,03,31,01,29,6.20
2018,03,31,01,30,6.20
2018,03,31,01,31,6.20
2018,03,31,01,32,6.20
2018,03,31,01,33,6.20
2018,03,31,01,34,6.20
2018,03,31,01,35,6.10
2018,03,31,01,36,6.10
2018,03,31,01,37,6.10
2018,03,31,01,38,6.10
2018,03,31,01,39,6.10
2018,03,31,01,40,6.00
2018,03,31,01,41,6.00
2018,03,31,01,42,5.90
2018,03,31,01,43,5.90
2018,03,31,01,44,5.90
2018,03,31,01,45,5.80
2018,03,31,01,46,5.80
2018,03,31,01,47,5.80
2018,03,31,01,48,5.80
2018,03,31,01,49,5.70
2018,03,31,01,50,5.70
2018,03,31,01,51,5.70
2018,03,31,01,52,5.70
2018,03,31,01,53,5.70
2018,03,31,01,54,5.70
2018,03,31,01,55,5.60
2018,03,31,01,56,5.60
2018,03,31,01,57,5.60
2018,03,31,01,58,5.60
2018,03,31,01,59,5.60
2018,03,31,02,00,5.60
2018,03,31,02,01,5.60
2018,03,31,02,02,5.60
2018,03,31,02,03,5.60
2018,03,31,02,04,5.50
2018,03,31,02,05,5.50
2018,03,31,02,06,5.50
2018,03,31,02,07,5.40
2018,03,31,02,08,5.40
2018,03,31,02,09,5.40
2018,03,31,02,10,5.40
2018,03,31,02,11,5.30
2018,03,31,02,12,5.30
2018,03,31,02,13,5.30
2018,03,31,02,14,5.30
2018,03,31,02,15,5.30
2018,03,31,02,16,5.30
2018,03,31,02,17,5.30
2018,03,31,02,18,5.30
2018,03,31,02,19,5.30
2018,03,31,02,20,5.30
2018,03,31,02,21,5.20
2018,03,31,02,22,5.20
2018,03,31,02,23,5.20
2018,03,31,02,24,5.20
2018,03,31,02,25,5.20
2018,03,31,02,26,5.20
2018,03,31,02,27,5.20
2018,03,31,02,28,5.20
2018,03,31,02,29,5.20
2018,03,31,02,30,5.20
2018,03,31,02,31,5.20
2018,03,31,02,32,5.20
2018,03,31,02,33,5.20
2018,03,31,02,34,5.20
2018,03,31,02,35,5.20
2018,03,31,02,36,5.20
2018,03,31,02,37,5.10
2018,03,31,02,38,5.10
2018,03,31,02,39,5.10
2018,03,31,02,40,5.10
2018,03,31,02,41,5.10
2018,03,31,02,42,5.10
2018,03,31,02,43,5.10
2018,03,31,02,44,5.10
2018,03,31,02,45,5.10
2018,03,31,02,46,5.10
2018,03,31,02,47,5.00
2018,03,31,02,48,5.00
2018,03,31,02,49,4.90
2018,03,31,02,50,4.90
2018,03,31,02,51,4.90
2018,03,31,02,52,4.90
2018,03,31,02,53,4.90
2018,03,31,02,54,4.80
2018,03,31,02,55,4.80
2018,03,31,02,56,4.80
2018,03,31,02,57,4.80
2018,03,31,02,58,4.80
2018,03,31,02,59,4.80
2018,03,31,03,00,4.80
2018,03,31,03,01,4.80
2018,03,31,03,02,4.70
2018,03,31,03,03,4.70
2018,03,31,03,04,4.70
2018,03,31,03,05,4.70
2018,03,31,03,06,4.70
2018,03,31,03,07,4.60
2018,03,31,03,08,4.60
2018,03,31,03,09,4.60
2018,03,31,03,10,4.60
2018,03,31,03,11,4.60
2018,03,31,03,12,4.50
2018,03,31,03,13,4.50
2018,03,31,03,14,4.40
2018,03,31,03,15,4.40
2018,03,31,03,16,4.40
2018,03,31,03,17,4.40
2018,03,31,03,18,4.30
2018,03,31,03,19,4.30
2018,03,31,03,20,4.30
2018,03,31,03,21,4.30
2018,03,31,03,22,4.30
2018,03,31,03,23,4.30
2018,03,31,03,24,4.20
2018,03,31,03,25,4.20
2018,03,31,03,26,4.10
2018,03,31,03,27,4.10
2018,03,31,03,28,4.10
2018,03,31,03,29,4.00
2018,03,31,03,30,4.00
2018,03,31,03,31,4.00
2018,03,31,03,32,3.90
2018,03,31,03,33,3.90
2018,03,31,03,34,3.90
2018,03,31,03,35,4.00
2018,03,31,03,36,4.00
2018,03,31,03,37,4.00
2018,03,31,03,38,4.00
2018,03,31,03,39,4.00
2018,03,31,03,40,4.00
2018,03,31,03,41,4.00
2018,03,31,03,42,4.00
2018,03,31,03,43,3.90
2018,03,31,03,44,3.90
2018,03,31,03,45,3.90
2018,03,31,03,46,3.90
2018,03,31,03,47,3.90
2018,03,31,03,48,3.90
2018,03,31,03,49,3.80
2018,03,31,03,50,3.80
2018,03,31,03,51,3.80
2018,03,31,03,52,3.80
2018,03,31,03,53,3.80
2018,03,31,03,54,3.80
2018,03,31,03,55,3.80
2018,03,31,03,56,3.80
2018,03,31,03,57,3.80
2018,03,31,03,58,3.80
2018,03,31,03,59,3.80
2018,03,31,04,00,3.70
2018,03,31,04,01,3.70
2018,03,31,04,02,3.70
2018,03,31,04,03,3.70
2018,03,31,04,04,3.70
2018,03,31,04,05,3.60
2018,03,31,04,06,3.60
2018,03,31,04,07,3.60
2018,03,31,04,08,3.60
2018,03,31,04,09,3.60
2018,03,31,04,10,3.60
2018,03,31,04,11,3.60
2018,03,31,04,12,3.60
2018,03,31,04,13,3.60
2018,03,31,04,14,3.50
2018,03,31,04,15,3.50
2018,03,31,04,16,3.50
2018,03,31,04,17,3.50
2018,03,31,04,18,3.40
2018,03,31,04,19,3.40
2018,03,31,04,20,3.40
2018,03,31,04,21,3.40
2018,03,31,04,22,3.40
2018,03,31,04,23,3.40
2018,03,31,04,24,3.40
2018,03,31,04,25,3.40
2018,03,31,04,26,3.30
2018,03,31,04,27,3.30
2018,03,31,04,28,3.30
2018,03,31,04,29,3.30
2018,03,31,04,30,3.30
2018,03,31,04,31,3.30
2018,03,31,04,32,3.20
2018,03,31,04,33,3.20
2018,03,31,04,34,3.20
2018,03,31,04,35,3.20
2018,03,31,04,36,3.20
2018,03,31,04,37,3.20
2018,03,31,04,38,3.20
2018,03,31,04,39,3.20
2018,03,31,04,40,3.10
2018,03,31,04,41,3.10
2018,03,31,04,42,3.10
2018,03,31,04,43,3.10
2018,03,31,04,44,3.10
2018,03,31,04,45,3.10
2018,03,31,04,46,3.10
2018,03,31,04,47,3.10
2018,03,31,04,48,3.10
2018,03,31,04,49,3.10
2018,03,31,04,50,3.10
2018,03,31,04,51,3.10
2018,03,31,04,52,3.10
2018,03,31,04,53,3.10
2018,03,31,04,54,3.10
2018,03,31,04,55,3.10
2018,03,31,04,56,3.00
2018,03,31,04,57,3.00
2018,03,31,04,58,3.00
2018,03,31,04,59,3.00
2018,03,31,05,00,3.00
2018,03,31,05,01,3.00
2018,03,31,05,02,3.00
2018,03,31,05,03,3.00
2018,03,31,05,04,2.90
2018,03,31,05,05,2.90
2018,03,31,05,06,2.90
2018,03,31,05,07,2.90
2018,03,31,05,08,2.90
2018,03,31,05,09,2.90
2018,03,31,05,10,2.90
2018,03,31,05,11,2.90
2018,03,31,05,12,2.90
2018,03,31,05,13,2.90
2018,03,31,05,14,2.90
2018,03,31,05,15,2.90
2018,03,31,05,16,2.90
2018,03,31,05,17,3.00
2018,03,31,05,18,2.90
2018,03,31,05,19,3.00
2018,03,31,05,20,3.00
2018,03,31,05,21,3.00
2018,03,31,05,22,3.00
2018,03,31,05,23,3.00
2018,03,31,05,24,3.00
2018,03,31,05,25,2.90
2018,03,31,05,26,3.00
2018,03,31,05,27,2.90
2018,03,31,05,28,2.90
2018,03,31,05,29,2.90
2018,03,31,05,30,2.90
2018,03,31,05,31,2.90
2018,03,31,05,32,2.90
2018,03,31,05,33,2.90
2018,03,31,05,34,2.90
2018,03,31,05,35,2.90
2018,03,31,05,36,2.90
2018,03,31,05,37,2.90
2018,03,31,05,38,2.90
2018,03,31,05,39,2.90
2018,03,31,05,40,2.90
2018,03,31,05,41,2.90
2018,03,31,05,42,2.90
2018,03,31,05,43,2.90
2018,03,31,05,44,2.90
2018,03,31,05,45,2.90
2018,03,31,05,46,2.90
2018,03,31,05,47,2.90
2018,03,31,05,48,2.90
2018,03,31,05,49,3.00
2018,03,31,05,50,3.00
2018,03,31,05,51,3.00
2018,03,31,05,52,3.00
2018,03,31,05,53,3.00
2018,03,31,05,54,2.90
2018,03,31,05,55,2.90
2018,03,31,05,56,2.90
2018,03,31,05,57,2.90
2018,03,31,05,58,2.90
2018,03,31,05,59,2.90
2018,03,31,06,00,2.90
2018,03,31,06,01,2.90
2018,03,31,06,02,2.90
2018,03,31,06,03,2.90
2018,03,31,06,04,2.90
2018,03,31,06,05,2.90
2018,03,31,06,06,2.80
2018,03,31,06,07,2.80
2018,03,31,06,08,2.80
2018,03,31,06,09,2.80
2018,03,31,06,10,2.80
2018,03,31,06,11,2.80
2018,03,31,06,12,2.70
2018,03,31,06,13,2.70
2018,03,31,06,14,2.70
2018,03,31,06,15,2.70
2018,03,31,06,16,2.70
2018,03,31,06,17,2.70
2018,03,31,06,18,2.70
2018,03,31,06,19,2.70
2018,03,31,06,20,2.70
2018,03,31,06,21,2.70
2018,03,31,06,22,2.70
2018,03,31,06,23,2.70
2018,03,31,06,24,2.70
2018,03,31,06,25,2.70
2018,03,31,06,26,2.70
2018,03,31,06,27,2.70
2018,03,31,06,28,2.60
2018,03,31,06,29,2.70
2018,03,31,06,30,2.60
2018,03,31,06,31,2.60
2018,03,31,06,32,2.70
2018,03,31,06,33,2.70
2018,03,31,06,34,2.70
2018,03,31,06,35,2.70
2018,03,31,06,36,2.70
2018,03,31,06,37,2.70
2018,03,31,06,38,2.60
2018,03,31,06,39,2.60
2018,03,31,06,40,2.60
2018,03,31,06,41,2.60
2018,03,31,06,42,2.60
2018,03,31,06,43,2.60
2018,03,31,06,44,2.60
2018,03,31,06,45,2.60
2018,03,31,06,46,2.60
2018,03,31,06,47,2.60
2018,03,31,06,48,2.60
2018,03,31,06,49,2.60
2018,03,31,06,50,2.60
2018,03,31,06,51,2.60
2018,03,31,06,52,2.60
2018,03,31,06,53,2.50
2018,03,31,06,54,2.50
2018,03,31,06,55,2.50
2018,03,31,06,56,2.50
2018,03,31,06,57,2.50
2018,03,31,06,58,2.50
2018,03,31,06,59,2.40
2018,03,31,07,00,2.40
2018,03,31,07,01,2.40
2018,03,31,07,02,2.50
2018,03,31,07,03,2.50
2018,03,31,07,04,2.40
2018,03,31,07,05,2.40
2018,03,31,07,06,2.40
2018,03,31,07,07,2.40
2018,03,31,07,08,2.40
2018,03,31,07,09,2.40
2018,03,31,07,10,2.40
2018,03,31,07,11,2.40
2018,03,31,07,12,2.40
2018,03,31,07,13,2.40
2018,03,31,07,14,2.50
2018,03,31,07,15,2.50
2018,03,31,07,16,2.50
2018,03,31,07,17,2.50
2018,03,31,07,18,2.50
2018,03,31,07,19,2.50
2018,03,31,07,20,2.60
2018,03,31,07,21,2.60
2018,03,31,07,22,2.60
2018,03,31,07,23,2.60
2018,03,31,07,24,2.60
2018,03,31,07,25,2.60
2018,03,31,07,26,2.60
2018,03,31,07,27,2.60
2018,03,31,07,28,2.60
2018,03,31,07,29,2.60
2018,03,31,07,30,2.60
2018,03,31,07,31,2.60
2018,03,31,07,32,2.70
2018,03,31,07,33,2.70
2018,03,31,07,34,2.70
2018,03,31,07,35,2.70
2018,03,31,07,36,2.70
2018,03,31,07,37,2.70
2018,03,31,07,38,2.70
2018,03,31,07,39,2.70
2018,03,31,07,40,2.70
2018,03,31,07,41,2.70
2018,03,31,07,42,2.80
2018,03,31,07,43,2.80
2018,03,31,07,44,2.80
2018,03,31,07,45,2.80
2018,03,31,07,46,2.80
2018,03,31,07,47,2.80
2018,03,31,07,48,2.80
2018,03,31,07,49,2.90
2018,03,31,07,50,2.90
2018,03,31,07,51,2.90
2018,03,31,07,52,2.90
2018,03,31,07,53,2.90
2018,03,31,07,54,2.90
2018,03,31,07,55,2.90
2018,03,31,07,56,2.90
2018,03,31,07,57,2.90
2018,03,31,07,58,2.90
2018,03,31,07,59,3.00
2018,03,31,08,00,3.00
2018,03,31,08,01,3.00
2018,03,31,08,02,3.10
2018,03,31,08,03,3.10
2018,03,31,08,04,3.10
2018,03,31,08,05,3.10
2018,03,31,08,06,3.20
2018,03,31,08,07,3.20
2018,03,31,08,08,3.20
2018,03,31,08,09,3.20
2018,03,31,08,10,3.20
2018,03,31,08,11,3.20
2018,03,31,08,12,3.30
2018,03,31,08,13,3.30
2018,03,31,08,14,3.30
2018,03,31,08,15,3.30
2018,03,31,08,16,3.30
2018,03,31,08,17,3.30
2018,03,31,08,18,3.30
2018,03,31,08,19,3.30
2018,03,31,08,20,3.40
2018,03,31,08,21,3.40
2018,03,31,08,22,3.40
2018,03,31,08,23,3.40
2018,03,31,08,24,3.40
2018,03,31,08,25,3.50
2018,03,31,08,26,3.50
2018,03,31,08,27,3.50
2018,03,31,08,28,3.40
2018,03,31,08,29,3.50
2018,03,31,08,30,3.40
2018,03,31,08,31,3.50
2018,03,31,08,32,3.40
2018,03,31,08,33,3.40
2018,03,31,08,34,3.40
2018,03,31,08,35,3.40
2018,03,31,08,36,3.50
2018,03,31,08,37,3.50
2018,03,31,08,38,3.50
2018,03,31,08,39,3.60
2018,03,31,08,40,3.60
2018,03,31,08,41,3.60
2018,03,31,08,42,3.60
2018,03,31,08,43,3.60
2018,03,31,08,44,3.70
2018,03,31,08,45,3.70
2018,03,31,08,46,3.70
2018,03,31,08,47,3.70
2018,03,31,08,48,3.70
2018,03,31,08,49,3.80
2018,03,31,08,50,3.80
2018,03,31,08,51,3.80
2018,03,31,08,52,3.80
2018,03,31,08,53,3.90
2018,03,31,08,54,3.90
2018,03,31,08,55,4.00
2018,03,31,08,56,4.00
2018,03,31,08,57,4.10
2018,03,31,08,58,4.10
2018,03,31,08,59,4.10
2018,03,31,09,00,4.20
2018,03,31,09,01,4.20
2018,03,31,09,02,4.30
2018,03,31,09,03,4.30
2018,03,31,09,04,4.30
2018,03,31,09,05,4.40
2018,03,31,09,06,4.40
2018,03,31,09,07,4.50
2018,03,31,09,08,4.50
2018,03,31,09,09,4.60
2018,03,31,09,10,4.60
2018,03,31,09,11,4.60
2018,03,31,09,12,4.70
2018,03,31,09,13,4.70
2018,03,31,09,14,4.80
2018,03,31,09,15,4.80
2018,03,31,09,16,4.90
2018,03,31,09,17,4.90
2018,03,31,09,18,5.00
2018,03,31,09,19,5.10
2018,03,31,09,20,5.10
2018,03,31,09,21,5.20
2018,03,31,09,22,5.20
2018,03,31,09,23,5.30
2018,03,31,09,24,5.30
2018,03,31,09,25,5.30
2018,03,31,09,26,5.30
2018,03,31,09,27,5.40
2018,03,31,09,28,5.40
2018,03,31,09,29,5.50
2018,03,31,09,30,5.60
2018,03,31,09,31,5.60
2018,03,31,09,32,5.60
2018,03,31,09,33,5.70
2018,03,31,09,34,5.70
2018,03,31,09,35,5.70
2018,03,31,09,36,5.80
2018,03,31,09,37,5.80
2018,03,31,09,38,5.90
2018,03,31,09,39,6.00
2018,03,31,09,40,6.10
2018,03,31,09,41,6.20
2018,03,31,09,42,6.30
2018,03,31,09,43,6.30
2018,03,31,09,44,6.40
2018,03,31,09,45,6.40
2018,03,31,09,46,6.50
2018,03,31,09,47,6.60
2018,03,31,09,48,6.60
2018,03,31,09,49,6.70
2018,03,31,09,50,6.80
2018,03,31,09,51,6.80
2018,03,31,09,52,6.90
2018,03,31,09,53,7.00
2018,03,31,09,54,7.10
2018,03,31,09,55,7.10
2018,03,31,09,56,7.30
2018,03,31,09,57,7.30
2018,03,31,09,58,7.40
2018,03,31,09,59,7.50
2018,03,31,10,00,7.60
2018,03,31,10,01,7.60
2018,03,31,10,02,7.60
2018,03,31,10,03,7.50
2018,03,31,10,04,7.50
2018,03,31,10,05,7.40
2018,03,31,10,06,7.40
2018,03,31,10,07,7.30
2018,03,31,10,08,7.30
2018,03,31,10,09,7.30
2018,03,31,10,10,7.30
2018,03,31,10,11,7.30
2018,03,31,10,12,7.30
2018,03,31,10,13,7.30
2018,03,31,10,14,7.20
2018,03,31,10,15,7.20
2018,03,31,10,16,7.20
2018,03,31,10,17,7.20
2018,03,31,10,18,7.20
2018,03,31,10,19,7.20
2018,03,31,10,20,7.20
2018,03,31,10,21,7.20
2018,03,31,10,22,7.30
2018,03,31,10,23,7.30
2018,03,31,10,24,7.30
2018,03,31,10,25,7.30
2018,03,31,10,26,7.40
2018,03,31,10,27,7.40
2018,03,31,10,28,7.40
2018,03,31,10,29,7.50
2018,03,31,10,30,7.50
2018,03,31,10,31,7.50
2018,03,31,10,32,7.60
2018,03,31,10,33,7.60
2018,03,31,10,34,7.70
2018,03,31,10,35,7.70
2018,03,31,10,36,7.80
2018,03,31,10,37,7.80
2018,03,31,10,38,7.80
2018,03,31,10,39,7.80
2018,03,31,10,40,7.80
2018,03,31,10,41,7.80
2018,03,31,10,42,7.90
2018,03,31,10,43,7.90
2018,03,31,10,44,8.00
2018,03,31,10,45,8.10
2018,03,31,10,46,8.20
2018,03,31,10,47,8.30
2018,03,31,10,48,8.30
2018,03,31,10,49,8.30
2018,03,31,10,50,8.40
2018,03,31,10,51,8.50
2018,03,31,10,52,8.60
2018,03,31,10,53,8.70
2018,03,31,10,54,8.70
2018,03,31,10,55,8.80
2018,03,31,10,56,8.80
2018,03,31,10,57,8.90
2018,03,31,10,58,9.00
2018,03,31,10,59,9.00
2018,03,31,11,00,9.10
2018,03,31,11,01,9.10
2018,03,31,11,02,9.00
2018,03,31,11,03,9.10
2018,03,31,11,04,9.20
2018,03,31,11,05,9.30
2018,03,31,11,06,9.40
2018,03,31,11,07,9.40
2018,03,31,11,08,9.40
2018,03,31,11,09,9.40
2018,03,31,11,10,9.30
2018,03,31,11,11,9.30
2018,03,31,11,12,9.30
2018,03,31,11,13,9.30
2018,03,31,11,14,9.30
2018,03,31,11,15,9.30
2018,03,31,11,16,9.30
2018,03,31,11,17,9.40
2018,03,31,11,18,9.40
2018,03,31,11,19,9.50
2018,03,31,11,20,9.50
2018,03,31,11,21,9.60
2018,03,31,11,22,9.60
2018,03,31,11,23,9.70
2018,03,31,11,24,9.70
2018,03,31,11,25,9.70
2018,03,31,11,26,9.70
2018,03,31,11,27,9.70
2018,03,31,11,28,9.70
2018,03,31,11,29,9.70
2018,03,31,11,30,9.80
2018,03,31,11,31,9.80
2018,03,31,11,32,9.80
2018,03,31,11,33,9.80
2018,03,31,11,34,9.80
2018,03,31,11,35,9.80
2018,03,31,11,36,9.80
2018,03,31,11,37,9.80
2018,03,31,11,38,9.80
2018,03,31,11,39,9.90
2018,03,31,11,40,9.80
2018,03,31,11,41,9.80
2018,03,31,11,42,9.80
2018,03,31,11,43,9.80
2018,03,31,11,44,9.80
2018,03,31,11,45,9.80
2018,03,31,11,46,9.80
2018,03,31,11,47,9.80
2018,03,31,11,48,9.80
2018,03,31,11,49,9.80
2018,03,31,11,50,9.80
2018,03,31,11,51,9.90
2018,03,31,11,52,10.00
2018,03,31,11,53,10.00
2018,03,31,11,54,10.10
2018,03,31,11,55,10.20
2018,03,31,11,56,10.30
2018,03,31,11,57,10.40
2018,03,31,11,58,10.50
2018,03,31,11,59,10.50
2018,03,31,12,00,10.60
2018,03,31,12,01,10.60
2018,03,31,12,02,10.70
2018,03,31,12,03,10.70
2018,03,31,12,04,10.80
2018,03,31,12,05,10.80
2018,03,31,12,06,10.70
2018,03,31,12,07,10.70
2018,03,31,12,08,10.70
2018,03,31,12,09,10.70
2018,03,31,12,10,10.70
2018,03,31,12,11,10.80
2018,03,31,12,12,10.80
2018,03,31,12,13,10.80
2018,03,31,12,14,10.90
2018,03,31,12,15,10.90
2018,03,31,12,16,11.00
2018,03,31,12,17,11.10
2018,03,31,12,18,11.10
2018,03,31,12,19,11.20
2018,03,31,12,20,11.20
2018,03,31,12,21,11.30
2018,03,31,12,22,11.30
2018,03,31,12,23,11.30
2018,03,31,12,24,11.40
2018,03,31,12,25,11.40
2018,03,31,12,26,11.50
2018,03,31,12,27,11.60
2018,03,31,12,28,11.70
2018,03,31,12,29,11.80
2018,03,31,12,30,11.80
2018,03,31,12,31,11.90
2018,03,31,12,32,12.00
2018,03,31,12,33,12.10
2018,03,31,12,34,12.30
2018,03,31,12,35,12.40
2018,03,31,12,36,12.50
2018,03,31,12,37,12.50
2018,03,31,12,38,12.60
2018,03,31,12,39,12.70
2018,03,31,12,40,12.70
2018,03,31,12,41,12.70
2018,03,31,12,42,12.70
2018,03,31,12,43,12.70
2018,03,31,12,44,12.60
2018,03,31,12,45,12.50
2018,03,31,12,46,12.30
2018,03,31,12,47,12.10
2018,03,31,12,48,12.00
2018,03,31,12,49,11.90
2018,03,31,12,50,11.90
2018,03,31,12,51,11.90
2018,03,31,12,52,11.90
2018,03,31,12,53,11.90
2018,03,31,12,54,12.00
2018,03,31,12,55,12.10
2018,03,31,12,56,12.20
2018,03,31,12,57,12.20
2018,03,31,12,58,12.20
2018,03,31,12,59,12.30
2018,03,31,13,00,12.30
2018,03,31,13,01,12.40
2018,03,31,13,02,12.50
2018,03,31,13,03,12.60
2018,03,31,13,04,12.60
2018,03,31,13,05,12.60
2018,03,31,13,06,12.60
2018,03,31,13,07,12.50
2018,03,31,13,08,12.50
2018,03,31,13,09,12.40
2018,03,31,13,10,12.40
2018,03,31,13,11,12.30
2018,03,31,13,12,12.30
2018,03,31,13,13,12.30
2018,03,31,13,14,12.30
2018,03,31,13,15,12.30
2018,03,31,13,16,12.30
2018,03,31,13,17,12.30
2018,03,31,13,18,12.30
2018,03,31,13,19,12.30
2018,03,31,13,20,12.20
2018,03,31,13,21,12.20
2018,03,31,13,22,12.20
2018,03,31,13,23,12.20
2018,03,31,13,24,12.30
2018,03,31,13,25,12.40
2018,03,31,13,26,12.40
2018,03,31,13,27,12.40
2018,03,31,13,28,12.40
2018,03,31,13,29,12.40
2018,03,31,13,30,12.50
2018,03,31,13,31,12.60
2018,03,31,13,32,12.60
2018,03,31,13,33,12.70
2018,03,31,13,34,12.70
2018,03,31,13,35,12.70
2018,03,31,13,36,12.70
2018,03,31,13,37,12.80
2018,03,31,13,38,12.80
2018,03,31,13,39,12.90
2018,03,31,13,40,13.00
2018,03,31,13,41,13.00
2018,03,31,13,42,13.00
2018,03,31,13,43,13.00
2018,03,31,13,44,12.90
2018,03,31,13,45,12.90
2018,03,31,13,46,12.90
2018,03,31,13,47,12.90
2018,03,31,13,48,12.90
2018,03,31,13,49,12.90
2018,03,31,13,50,12.90
2018,03,31,13,51,12.90
2018,03,31,13,52,12.90
2018,03,31,13,53,12.90
2018,03,31,13,54,12.90
2018,03,31,13,55,13.00
2018,03,31,13,56,13.00
2018,03,31,13,57,13.10
2018,03,31,13,58,13.10
2018,03,31,13,59,13.20
2018,03,31,14,00,13.20
2018,03,31,14,01,13.30
2018,03,31,14,02,13.30
2018,03,31,14,03,13.30
2018,03,31,14,04,13.40
2018,03,31,14,05,13.50
2018,03,31,14,06,13.50
2018,03,31,14,07,13.50
2018,03,31,14,08,13.50
2018,03,31,14,09,13.50
2018,03,31,14,10,13.40
2018,03,31,14,11,13.40
2018,03,31,14,12,13.40
2018,03,31,14,13,13.40
2018,03,31,14,14,13.40
2018,03,31,14,15,13.40
2018,03,31,14,16,13.50
2018,03,31,14,17,13.60
2018,03,31,14,18,13.60
2018,03,31,14,19,13.70
2018,03,31,14,20,13.70
2018,03,31,14,21,13.70
2018,03,31,14,22,13.80
2018,03,31,14,23,13.80
2018,03,31,14,24,13.80
2018,03,31,14,25,13.90
2018,03,31,14,26,13.90
2018,03,31,14,27,13.90
2018,03,31,14,28,13.90
2018,03,31,14,29,13.90
2018,03,31,14,30,14.00
2018,03,31,14,31,14.00
2018,03,31,14,32,14.10
2018,03,31,14,33,14.20
2018,03,31,14,34,14.20
2018,03,31,14,35,14.20
2018,03,31,14,36,14.20
2018,03,31,14,37,14.20
2018,03,31,14,38,14.20
2018,03,31,14,39,14.20
2018,03,31,14,40,14.20
2018,03,31,14,41,14.20
2018,03,31,14,42,14.20
2018,03,31,14,43,14.20
2018,03,31,14,44,14.10
2018,03,31,14,45,14.10
2018,03,31,14,46,14.10
2018,03,31,14,47,14.10
2018,03,31,14,48,14.10
2018,03,31,14,49,14.10
2018,03,31,14,50,14.10
2018,03,31,14,51,14.10
2018,03,31,14,52,14.10
2018,03,31,14,53,14.10
2018,03,31,14,54,14.10
2018,03,31,14,55,14.10
2018,03,31,14,56,14.10
2018,03,31,14,57,14.20
2018,03,31,14,58,14.20
2018,03,31,14,59,14.20
2018,03,31,15,00,14.20
2018,03,31,15,01,14.30
2018,03,31,15,02,14.20
2018,03,31,15,03,14.20
2018,03,31,15,04,14.20
2018,03,31,15,05,14.10
2018,03,31,15,06,14.10
2018,03,31,15,07,14.10
2018,03,31,15,08,14.10
2018,03,31,15,09,14.20
2018,03,31,15,10,14.30
2018,03,31,15,11,14.30
2018,03,31,15,12,14.40
2018,03,31,15,13,14.40
2018,03,31,15,14,14.40
2018,03,31,15,15,14.50
2018,03,31,15,16,14.50
2018,03,31,15,17,14.50
2018,03,31,15,18,14.50
2018,03,31,15,19,14.60
2018,03,31,15,20,14.60
2018,03,31,15,21,14.60
2018,03,31,15,22,14.50
2018,03,31,15,23,14.50
2018,03,31,15,24,14.50
2018,03,31,15,25,14.50
2018,03,31,15,26,14.60
2018,03,31,15,27,14.50
2018,03,31,15,28,14.40
2018,03,31,15,29,14.40
2018,03,31,15,30,14.40
2018,03,31,15,31,14.30
2018,03,31,15,32,14.30
2018,03,31,15,33,14.30
2018,03,31,15,34,14.30
2018,03,31,15,35,14.40
2018,03,31,15,36,14.40
2018,03,31,15,37,14.40
2018,03,31,15,38,14.50
2018,03,31,15,39,14.50
2018,03,31,15,40,14.50
2018,03,31,15,41,14.40
2018,03,31,15,42,14.40
2018,03,31,15,43,14.40
2018,03,31,15,44,14.40
2018,03,31,15,45,14.40
2018,03,31,15,46,14.30
2018,03,31,15,47,14.30
2018,03,31,15,48,14.30
2018,03,31,15,49,14.30
2018,03,31,15,50,14.30
2018,03,31,15,51,14.30
2018,03,31,15,52,14.30
2018,03,31,15,53,14.20
2018,03,31,15,54,14.20
2018,03,31,15,55,14.20
2018,03,31,15,56,14.20
2018,03,31,15,57,14.20
2018,03,31,15,58,14.30
2018,03,31,15,59,14.40
2018,03,31,16,00,14.40
2018,03,31,16,01,14.40
2018,03,31,16,02,14.30
2018,03,31,16,03,14.20
2018,03,31,16,04,14.10
2018,03,31,16,05,14.10
2018,03,31,16,06,14.10
2018,03,31,16,07,14.10
2018,03,31,16,08,14.00
2018,03,31,16,09,14.00
2018,03,31,16,10,13.90
2018,03,31,16,11,13.80
2018,03,31,16,12,13.80
2018,03,31,16,13,13.70
2018,03,31,16,14,13.70
2018,03,31,16,15,13.60
2018,03,31,16,16,13.60
2018,03,31,16,17,13.70
2018,03,31,16,18,13.70
2018,03,31,16,19,13.70
2018,03,31,16,20,13.70
2018,03,31,16,21,13.60
2018,03,31,16,22,13.60
2018,03,31,16,23,13.50
2018,03,31,16,24,13.50
2018,03,31,16,25,13.40
2018,03,31,16,26,13.40
2018,03,31,16,27,13.40
2018,03,31,16,28,13.40
2018,03,31,16,29,13.40
2018,03,31,16,30,13.40
2018,03,31,16,31,13.30
2018,03,31,16,32,13.30
2018,03,31,16,33,13.30
2018,03,31,16,34,13.20
2018,03,31,16,35,13.20
2018,03,31,16,36,13.20
2018,03,31,16,37,13.10
2018,03,31,16,38,13.10
2018,03,31,16,39,13.10
2018,03,31,16,40,13.10
2018,03,31,16,41,13.00
2018,03,31,16,42,13.00
2018,03,31,16,43,12.90
2018,03,31,16,44,13.00
2018,03,31,16,45,13.00
2018,03,31,16,46,13.00
2018,03,31,16,47,13.10
2018,03,31,16,48,13.10
2018,03,31,16,49,13.10
2018,03,31,16,50,13.10
2018,03,31,16,51,13.10
2018,03,31,16,52,13.10
2018,03,31,16,53,13.00
2018,03,31,16,54,13.10
2018,03,31,16,55,13.10
2018,03,31,16,56,13.10
2018,03,31,16,57,13.10
2018,03,31,16,58,13.20
2018,03,31,16,59,13.10
2018,03,31,17,00,13.10
2018,03,31,17,01,13.10
2018,03,31,17,02,13.20
2018,03,31,17,03,13.20
2018,03,31,17,04,13.20
2018,03,31,17,05,13.20
2018,03,31,17,06,13.10
2018,03,31,17,07,13.10
2018,03,31,17,08,13.00
2018,03,31,17,09,13.00
2018,03,31,17,10,12.90
2018,03,31,17,11,12.90
2018,03,31,17,12,12.90
2018,03,31,17,13,12.90
2018,03,31,17,14,12.90
2018,03,31,17,15,12.90
2018,03,31,17,16,12.80
2018,03,31,17,17,12.80
2018,03,31,17,18,12.90
2018,03,31,17,19,12.90
2018,03,31,17,20,12.90
2018,03,31,17,21,12.90
2018,03,31,17,22,12.90
2018,03,31,17,23,12.90
2018,03,31,17,24,12.90
2018,03,31,17,25,12.90
2018,03,31,17,26,12.90
2018,03,31,17,27,12.90
2018,03,31,17,28,12.90
2018,03,31,17,29,12.80
2018,03,31,17,30,12.80
2018,03,31,17,31,12.80
2018,03,31,17,32,12.70
2018,03,31,17,33,12.70
2018,03,31,17,34,12.70
2018,03,31,17,35,12.70
2018,03,31,17,36,12.60
2018,03,31,17,37,12.60
2018,03,31,17,38,12.60
2018,03,31,17,39,12.50
2018,03,31,17,40,12.50
2018,03,31,17,41,12.40
2018,03,31,17,42,12.40
2018,03,31,17,43,12.40
2018,03,31,17,44,12.30
2018,03,31,17,45,12.30
2018,03,31,17,46,12.30
2018,03,31,17,47,12.30
2018,03,31,17,48,12.30
2018,03,31,17,49,12.30
2018,03,31,17,50,12.20